<?xml version="1.0" encoding="UTF-8" standalone="no" ?>
<gpx xmlns="http://www.topografix.com/GPX/1/1" xmlns:xsi="http://www.w3.org/2001/XMLSchema-instance" xsi:schemaLocation="http://www.topografix.com/GPX/1/1 http://www.topografix.com/GPX/1/1/gpx.xsd" version="1.1" creator="VisuGPX - https://www.visugpx.com">
  <metadata>
    <name>Moulin chatel</name>
    <desc><![CDATA[Boucle au depart de chatel montagne]]></desc>
  </metadata>
  <trk>
    <name><![CDATA[track]]></name>
    <trkseg>
      <trkpt lat="46.11687" lon="3.66535">
        <ele>357</ele>
        <time>2011-12-30T16:19:24Z</time>
      </trkpt>
      <trkpt lat="46.11666" lon="3.66583">
        <ele>362</ele>
        <time>2011-12-30T16:19:24Z</time>
      </trkpt>
      <trkpt lat="46.11619" lon="3.66556">
        <ele>365</ele>
        <time>2011-12-30T16:19:24Z</time>
      </trkpt>
      <trkpt lat="46.11542" lon="3.66579">
        <ele>375</ele>
        <time>2011-12-30T16:19:24Z</time>
      </trkpt>
      <trkpt lat="46.1145" lon="3.66596">
        <ele>384</ele>
        <time>2011-12-30T16:19:24Z</time>
      </trkpt>
      <trkpt lat="46.11398" lon="3.66604">
        <ele>388</ele>
        <time>2011-12-30T16:19:24Z</time>
      </trkpt>
      <trkpt lat="46.11324" lon="3.66599">
        <ele>398</ele>
        <time>2011-12-30T16:19:24Z</time>
      </trkpt>
      <trkpt lat="46.11247" lon="3.66547">
        <ele>402</ele>
        <time>2011-12-30T16:19:24Z</time>
      </trkpt>
      <trkpt lat="46.11174" lon="3.66526">
        <ele>392</ele>
        <time>2011-12-30T16:19:24Z</time>
      </trkpt>
      <trkpt lat="46.11139" lon="3.66512">
        <ele>385</ele>
        <time>2011-12-30T16:19:24Z</time>
      </trkpt>
      <trkpt lat="46.11136" lon="3.66506">
        <ele>384</ele>
        <time>2011-12-30T16:19:24Z</time>
      </trkpt>
      <trkpt lat="46.11129" lon="3.66442">
        <ele>378</ele>
        <time>2011-12-30T16:19:24Z</time>
      </trkpt>
      <trkpt lat="46.11124" lon="3.66403">
        <ele>375</ele>
        <time>2011-12-30T16:19:24Z</time>
      </trkpt>
      <trkpt lat="46.11102" lon="3.66393">
        <ele>375</ele>
        <time>2011-12-30T16:19:24Z</time>
      </trkpt>
      <trkpt lat="46.11079" lon="3.66407">
        <ele>375</ele>
        <time>2011-12-30T16:19:24Z</time>
      </trkpt>
      <trkpt lat="46.11074" lon="3.66449">
        <ele>377</ele>
        <time>2011-12-30T16:19:24Z</time>
      </trkpt>
      <trkpt lat="46.11084" lon="3.66542">
        <ele>381</ele>
        <time>2011-12-30T16:19:24Z</time>
      </trkpt>
      <trkpt lat="46.11097" lon="3.66599">
        <ele>380</ele>
        <time>2011-12-30T16:19:24Z</time>
      </trkpt>
      <trkpt lat="46.11118" lon="3.66683">
        <ele>386</ele>
        <time>2011-12-30T16:19:24Z</time>
      </trkpt>
      <trkpt lat="46.11138" lon="3.66734">
        <ele>404</ele>
        <time>2011-12-30T16:19:24Z</time>
      </trkpt>
      <trkpt lat="46.11131" lon="3.66768">
        <ele>405</ele>
        <time>2011-12-30T16:19:24Z</time>
      </trkpt>
      <trkpt lat="46.11088" lon="3.66852">
        <ele>392</ele>
        <time>2011-12-30T16:19:24Z</time>
      </trkpt>
      <trkpt lat="46.11082" lon="3.66891">
        <ele>387</ele>
        <time>2011-12-30T16:19:24Z</time>
      </trkpt>
      <trkpt lat="46.11102" lon="3.66935">
        <ele>395</ele>
        <time>2011-12-30T16:19:24Z</time>
      </trkpt>
      <trkpt lat="46.11148" lon="3.66944">
        <ele>399</ele>
        <time>2011-12-30T16:19:24Z</time>
      </trkpt>
      <trkpt lat="46.1126" lon="3.66989">
        <ele>403</ele>
        <time>2011-12-30T16:19:24Z</time>
      </trkpt>
      <trkpt lat="46.11298" lon="3.67022">
        <ele>404</ele>
        <time>2011-12-30T16:19:24Z</time>
      </trkpt>
      <trkpt lat="46.11326" lon="3.67131">
        <ele>401</ele>
        <time>2011-12-30T16:19:24Z</time>
      </trkpt>
      <trkpt lat="46.11346" lon="3.67197">
        <ele>400</ele>
        <time>2011-12-30T16:19:24Z</time>
      </trkpt>
      <trkpt lat="46.11365" lon="3.67223">
        <ele>399</ele>
        <time>2011-12-30T16:19:24Z</time>
      </trkpt>
      <trkpt lat="46.11401" lon="3.67254">
        <ele>401</ele>
        <time>2011-12-30T16:19:24Z</time>
      </trkpt>
      <trkpt lat="46.11358" lon="3.67276">
        <ele>409</ele>
        <time>2011-12-30T16:19:24Z</time>
      </trkpt>
      <trkpt lat="46.11286" lon="3.67273">
        <ele>427</ele>
        <time>2011-12-30T16:19:24Z</time>
      </trkpt>
      <trkpt lat="46.11249" lon="3.67273">
        <ele>442</ele>
        <time>2011-12-30T16:19:24Z</time>
      </trkpt>
      <trkpt lat="46.11199" lon="3.67364">
        <ele>445</ele>
        <time>2011-12-30T16:19:24Z</time>
      </trkpt>
      <trkpt lat="46.11169" lon="3.6744">
        <ele>436</ele>
        <time>2011-12-30T16:19:24Z</time>
      </trkpt>
      <trkpt lat="46.11112" lon="3.67488">
        <ele>435</ele>
        <time>2011-12-30T16:19:24Z</time>
      </trkpt>
      <trkpt lat="46.11035" lon="3.67561">
        <ele>427</ele>
        <time>2011-12-30T16:19:24Z</time>
      </trkpt>
      <trkpt lat="46.11025" lon="3.67598">
        <ele>426</ele>
        <time>2011-12-30T16:19:24Z</time>
      </trkpt>
      <trkpt lat="46.11029" lon="3.6765">
        <ele>422</ele>
        <time>2011-12-30T16:19:24Z</time>
      </trkpt>
      <trkpt lat="46.11041" lon="3.67681">
        <ele>419</ele>
        <time>2011-12-30T16:19:24Z</time>
      </trkpt>
      <trkpt lat="46.11069" lon="3.67696">
        <ele>414</ele>
        <time>2011-12-30T16:19:24Z</time>
      </trkpt>
      <trkpt lat="46.11096" lon="3.67706">
        <ele>410</ele>
        <time>2011-12-30T16:19:24Z</time>
      </trkpt>
      <trkpt lat="46.11104" lon="3.67721">
        <ele>412</ele>
        <time>2011-12-30T16:19:24Z</time>
      </trkpt>
      <trkpt lat="46.11088" lon="3.67751">
        <ele>412</ele>
        <time>2011-12-30T16:19:24Z</time>
      </trkpt>
      <trkpt lat="46.11055" lon="3.67762">
        <ele>416</ele>
        <time>2011-12-30T16:19:24Z</time>
      </trkpt>
      <trkpt lat="46.10987" lon="3.67746">
        <ele>421</ele>
        <time>2011-12-30T16:19:24Z</time>
      </trkpt>
      <trkpt lat="46.10949" lon="3.67742">
        <ele>423</ele>
        <time>2011-12-30T16:19:24Z</time>
      </trkpt>
      <trkpt lat="46.10834" lon="3.67774">
        <ele>421</ele>
        <time>2011-12-30T16:19:24Z</time>
      </trkpt>
      <trkpt lat="46.10758" lon="3.6778">
        <ele>422</ele>
        <time>2011-12-30T16:19:24Z</time>
      </trkpt>
      <trkpt lat="46.10696" lon="3.67779">
        <ele>425</ele>
        <time>2011-12-30T16:19:24Z</time>
      </trkpt>
      <trkpt lat="46.10584" lon="3.67715">
        <ele>436</ele>
        <time>2011-12-30T16:19:24Z</time>
      </trkpt>
      <trkpt lat="46.10547" lon="3.67696">
        <ele>431</ele>
        <time>2011-12-30T16:19:24Z</time>
      </trkpt>
      <trkpt lat="46.10529" lon="3.67694">
        <ele>428</ele>
        <time>2011-12-30T16:19:24Z</time>
      </trkpt>
      <trkpt lat="46.10505" lon="3.67703">
        <ele>424</ele>
        <time>2011-12-30T16:19:24Z</time>
      </trkpt>
      <trkpt lat="46.10334" lon="3.67545">
        <ele>426</ele>
        <time>2011-12-30T16:19:24Z</time>
      </trkpt>
      <trkpt lat="46.10305" lon="3.67556">
        <ele>428</ele>
        <time>2011-12-30T16:19:24Z</time>
      </trkpt>
      <trkpt lat="46.10256" lon="3.67595">
        <ele>427</ele>
        <time>2011-12-30T16:19:24Z</time>
      </trkpt>
      <trkpt lat="46.10223" lon="3.67632">
        <ele>428</ele>
        <time>2011-12-30T16:19:24Z</time>
      </trkpt>
      <trkpt lat="46.10168" lon="3.67627">
        <ele>431</ele>
        <time>2011-12-30T16:19:24Z</time>
      </trkpt>
      <trkpt lat="46.10115" lon="3.67598">
        <ele>433</ele>
        <time>2011-12-30T16:19:24Z</time>
      </trkpt>
      <trkpt lat="46.10089" lon="3.67567">
        <ele>430</ele>
        <time>2011-12-30T16:19:24Z</time>
      </trkpt>
      <trkpt lat="46.10046" lon="3.67512">
        <ele>422</ele>
        <time>2011-12-30T16:19:24Z</time>
      </trkpt>
      <trkpt lat="46.09968" lon="3.6753">
        <ele>425</ele>
        <time>2011-12-30T16:19:24Z</time>
      </trkpt>
      <trkpt lat="46.09891" lon="3.67551">
        <ele>430</ele>
        <time>2011-12-30T16:19:24Z</time>
      </trkpt>
      <trkpt lat="46.0985" lon="3.6758">
        <ele>436</ele>
        <time>2011-12-30T16:19:24Z</time>
      </trkpt>
      <trkpt lat="46.0983" lon="3.6756">
        <ele>434</ele>
        <time>2011-12-30T16:19:24Z</time>
      </trkpt>
      <trkpt lat="46.09789" lon="3.67561">
        <ele>440</ele>
        <time>2011-12-30T16:19:24Z</time>
      </trkpt>
      <trkpt lat="46.09719" lon="3.67572">
        <ele>447</ele>
        <time>2011-12-30T16:19:24Z</time>
      </trkpt>
      <trkpt lat="46.09679" lon="3.67592">
        <ele>451</ele>
        <time>2011-12-30T16:19:24Z</time>
      </trkpt>
      <trkpt lat="46.09641" lon="3.6759">
        <ele>451</ele>
        <time>2011-12-30T16:19:24Z</time>
      </trkpt>
      <trkpt lat="46.09616" lon="3.67571">
        <ele>448</ele>
        <time>2011-12-30T16:19:24Z</time>
      </trkpt>
      <trkpt lat="46.09487" lon="3.6756">
        <ele>446</ele>
        <time>2011-12-30T16:19:24Z</time>
      </trkpt>
      <trkpt lat="46.09416" lon="3.67568">
        <ele>445</ele>
        <time>2011-12-30T16:19:24Z</time>
      </trkpt>
      <trkpt lat="46.09355" lon="3.67568">
        <ele>446</ele>
        <time>2011-12-30T16:19:24Z</time>
      </trkpt>
      <trkpt lat="46.09322" lon="3.67582">
        <ele>445</ele>
        <time>2011-12-30T16:19:24Z</time>
      </trkpt>
      <trkpt lat="46.09299" lon="3.6763">
        <ele>446</ele>
        <time>2011-12-30T16:19:24Z</time>
      </trkpt>
      <trkpt lat="46.09267" lon="3.6766">
        <ele>447</ele>
        <time>2011-12-30T16:19:24Z</time>
      </trkpt>
      <trkpt lat="46.09246" lon="3.67672">
        <ele>447</ele>
        <time>2011-12-30T16:19:24Z</time>
      </trkpt>
      <trkpt lat="46.09214" lon="3.67681">
        <ele>446</ele>
        <time>2011-12-30T16:19:24Z</time>
      </trkpt>
      <trkpt lat="46.09167" lon="3.67733">
        <ele>453</ele>
        <time>2011-12-30T16:19:24Z</time>
      </trkpt>
      <trkpt lat="46.09137" lon="3.67786">
        <ele>459</ele>
        <time>2011-12-30T16:19:24Z</time>
      </trkpt>
      <trkpt lat="46.09114" lon="3.67845">
        <ele>460</ele>
        <time>2011-12-30T16:19:24Z</time>
      </trkpt>
      <trkpt lat="46.0911" lon="3.67865">
        <ele>461</ele>
        <time>2011-12-30T16:19:24Z</time>
      </trkpt>
      <trkpt lat="46.09115" lon="3.67921">
        <ele>461</ele>
        <time>2011-12-30T16:19:24Z</time>
      </trkpt>
      <trkpt lat="46.09119" lon="3.67955">
        <ele>461</ele>
        <time>2011-12-30T16:19:24Z</time>
      </trkpt>
      <trkpt lat="46.09127" lon="3.67994">
        <ele>465</ele>
        <time>2011-12-30T16:19:24Z</time>
      </trkpt>
      <trkpt lat="46.09105" lon="3.68028">
        <ele>466</ele>
        <time>2011-12-30T16:19:24Z</time>
      </trkpt>
      <trkpt lat="46.08992" lon="3.68059">
        <ele>460</ele>
        <time>2011-12-30T16:19:24Z</time>
      </trkpt>
      <trkpt lat="46.08921" lon="3.6807">
        <ele>457</ele>
        <time>2011-12-30T16:19:24Z</time>
      </trkpt>
      <trkpt lat="46.08855" lon="3.68122">
        <ele>458</ele>
        <time>2011-12-30T16:19:24Z</time>
      </trkpt>
      <trkpt lat="46.08819" lon="3.68165">
        <ele>459</ele>
        <time>2011-12-30T16:19:24Z</time>
      </trkpt>
      <trkpt lat="46.08794" lon="3.6819">
        <ele>458</ele>
        <time>2011-12-30T16:19:24Z</time>
      </trkpt>
      <trkpt lat="46.08772" lon="3.68183">
        <ele>457</ele>
        <time>2011-12-30T16:19:24Z</time>
      </trkpt>
      <trkpt lat="46.08759" lon="3.68184">
        <ele>456</ele>
        <time>2011-12-30T16:19:24Z</time>
      </trkpt>
      <trkpt lat="46.08703" lon="3.68218">
        <ele>457</ele>
        <time>2011-12-30T16:19:24Z</time>
      </trkpt>
      <trkpt lat="46.08661" lon="3.68274">
        <ele>463</ele>
        <time>2011-12-30T16:19:24Z</time>
      </trkpt>
      <trkpt lat="46.08602" lon="3.68369">
        <ele>468</ele>
        <time>2011-12-30T16:19:24Z</time>
      </trkpt>
      <trkpt lat="46.08588" lon="3.68434">
        <ele>471</ele>
        <time>2011-12-30T16:19:24Z</time>
      </trkpt>
      <trkpt lat="46.08603" lon="3.68484">
        <ele>470</ele>
        <time>2011-12-30T16:19:24Z</time>
      </trkpt>
      <trkpt lat="46.08629" lon="3.68498">
        <ele>466</ele>
        <time>2011-12-30T16:19:24Z</time>
      </trkpt>
      <trkpt lat="46.08651" lon="3.6854">
        <ele>462</ele>
        <time>2011-12-30T16:19:24Z</time>
      </trkpt>
      <trkpt lat="46.08657" lon="3.68578">
        <ele>463</ele>
        <time>2011-12-30T16:19:24Z</time>
      </trkpt>
      <trkpt lat="46.08649" lon="3.68603">
        <ele>464</ele>
        <time>2011-12-30T16:19:24Z</time>
      </trkpt>
      <trkpt lat="46.08618" lon="3.68646">
        <ele>468</ele>
        <time>2011-12-30T16:19:24Z</time>
      </trkpt>
      <trkpt lat="46.08597" lon="3.6868">
        <ele>474</ele>
        <time>2011-12-30T16:19:24Z</time>
      </trkpt>
      <trkpt lat="46.08564" lon="3.68758">
        <ele>485</ele>
        <time>2011-12-30T16:19:24Z</time>
      </trkpt>
      <trkpt lat="46.08554" lon="3.68814">
        <ele>480</ele>
        <time>2011-12-30T16:19:24Z</time>
      </trkpt>
      <trkpt lat="46.08539" lon="3.68846">
        <ele>477</ele>
        <time>2011-12-30T16:19:24Z</time>
      </trkpt>
      <trkpt lat="46.08493" lon="3.68871">
        <ele>479</ele>
        <time>2011-12-30T16:19:24Z</time>
      </trkpt>
      <trkpt lat="46.08421" lon="3.689">
        <ele>480</ele>
        <time>2011-12-30T16:19:24Z</time>
      </trkpt>
      <trkpt lat="46.08366" lon="3.68926">
        <ele>479</ele>
        <time>2011-12-30T16:19:24Z</time>
      </trkpt>
      <trkpt lat="46.08324" lon="3.68933">
        <ele>481</ele>
        <time>2011-12-30T16:19:24Z</time>
      </trkpt>
      <trkpt lat="46.08308" lon="3.68939">
        <ele>482</ele>
        <time>2011-12-30T16:19:24Z</time>
      </trkpt>
      <trkpt lat="46.08294" lon="3.68984">
        <ele>477</ele>
        <time>2011-12-30T16:19:24Z</time>
      </trkpt>
      <trkpt lat="46.08285" lon="3.69">
        <ele>477</ele>
        <time>2011-12-30T16:19:24Z</time>
      </trkpt>
      <trkpt lat="46.08268" lon="3.69029">
        <ele>475</ele>
        <time>2011-12-30T16:19:24Z</time>
      </trkpt>
      <trkpt lat="46.08206" lon="3.6906">
        <ele>477</ele>
        <time>2011-12-30T16:19:24Z</time>
      </trkpt>
      <trkpt lat="46.08175" lon="3.69096">
        <ele>479</ele>
        <time>2011-12-30T16:19:24Z</time>
      </trkpt>
      <trkpt lat="46.08136" lon="3.69121">
        <ele>479</ele>
        <time>2011-12-30T16:19:24Z</time>
      </trkpt>
      <trkpt lat="46.08114" lon="3.69133">
        <ele>479</ele>
        <time>2011-12-30T16:19:24Z</time>
      </trkpt>
      <trkpt lat="46.08108" lon="3.69177">
        <ele>480</ele>
        <time>2011-12-30T16:19:24Z</time>
      </trkpt>
      <trkpt lat="46.08109" lon="3.6922">
        <ele>481</ele>
        <time>2011-12-30T16:19:24Z</time>
      </trkpt>
      <trkpt lat="46.08098" lon="3.69302">
        <ele>475</ele>
        <time>2011-12-30T16:19:24Z</time>
      </trkpt>
      <trkpt lat="46.08089" lon="3.6936">
        <ele>476</ele>
        <time>2011-12-30T16:19:24Z</time>
      </trkpt>
      <trkpt lat="46.08065" lon="3.69413">
        <ele>481</ele>
        <time>2011-12-30T16:19:24Z</time>
      </trkpt>
      <trkpt lat="46.08043" lon="3.69481">
        <ele>477</ele>
        <time>2011-12-30T16:19:24Z</time>
      </trkpt>
      <trkpt lat="46.07994" lon="3.69491">
        <ele>477</ele>
        <time>2011-12-30T16:19:24Z</time>
      </trkpt>
      <trkpt lat="46.07957" lon="3.69493">
        <ele>477</ele>
        <time>2011-12-30T16:19:24Z</time>
      </trkpt>
      <trkpt lat="46.07941" lon="3.69502">
        <ele>478</ele>
        <time>2011-12-30T16:19:24Z</time>
      </trkpt>
      <trkpt lat="46.07923" lon="3.69566">
        <ele>478</ele>
        <time>2011-12-30T16:19:24Z</time>
      </trkpt>
      <trkpt lat="46.07881" lon="3.6964">
        <ele>478</ele>
        <time>2011-12-30T16:19:24Z</time>
      </trkpt>
      <trkpt lat="46.07831" lon="3.69726">
        <ele>478</ele>
        <time>2011-12-30T16:19:24Z</time>
      </trkpt>
      <trkpt lat="46.07795" lon="3.69773">
        <ele>477</ele>
        <time>2011-12-30T16:19:24Z</time>
      </trkpt>
      <trkpt lat="46.07754" lon="3.69806">
        <ele>477</ele>
        <time>2011-12-30T16:19:24Z</time>
      </trkpt>
      <trkpt lat="46.07689" lon="3.69816">
        <ele>480</ele>
        <time>2011-12-30T16:19:24Z</time>
      </trkpt>
      <trkpt lat="46.07654" lon="3.69818">
        <ele>480</ele>
        <time>2011-12-30T16:19:24Z</time>
      </trkpt>
      <trkpt lat="46.07619" lon="3.69793">
        <ele>480</ele>
        <time>2011-12-30T16:19:24Z</time>
      </trkpt>
      <trkpt lat="46.07577" lon="3.69763">
        <ele>478</ele>
        <time>2011-12-30T16:19:24Z</time>
      </trkpt>
      <trkpt lat="46.0753" lon="3.69728">
        <ele>477</ele>
        <time>2011-12-30T16:19:24Z</time>
      </trkpt>
      <trkpt lat="46.07494" lon="3.69737">
        <ele>475</ele>
        <time>2011-12-30T16:19:24Z</time>
      </trkpt>
      <trkpt lat="46.0743" lon="3.69776">
        <ele>471</ele>
        <time>2011-12-30T16:19:24Z</time>
      </trkpt>
      <trkpt lat="46.07376" lon="3.698">
        <ele>472</ele>
        <time>2011-12-30T16:19:24Z</time>
      </trkpt>
      <trkpt lat="46.07317" lon="3.69797">
        <ele>479</ele>
        <time>2011-12-30T16:19:24Z</time>
      </trkpt>
      <trkpt lat="46.07296" lon="3.69813">
        <ele>479</ele>
        <time>2011-12-30T16:19:24Z</time>
      </trkpt>
      <trkpt lat="46.07259" lon="3.69851">
        <ele>478</ele>
        <time>2011-12-30T16:19:24Z</time>
      </trkpt>
      <trkpt lat="46.0724" lon="3.69887">
        <ele>478</ele>
        <time>2011-12-30T16:19:24Z</time>
      </trkpt>
      <trkpt lat="46.0722" lon="3.69958">
        <ele>475</ele>
        <time>2011-12-30T16:19:24Z</time>
      </trkpt>
      <trkpt lat="46.07222" lon="3.70071">
        <ele>474</ele>
        <time>2011-12-30T16:19:24Z</time>
      </trkpt>
      <trkpt lat="46.07224" lon="3.70097">
        <ele>475</ele>
        <time>2011-12-30T16:19:24Z</time>
      </trkpt>
      <trkpt lat="46.07301" lon="3.7005">
        <ele>477</ele>
        <time>2011-12-30T16:19:24Z</time>
      </trkpt>
      <trkpt lat="46.07366" lon="3.7">
        <ele>477</ele>
        <time>2011-12-30T16:19:24Z</time>
      </trkpt>
      <trkpt lat="46.07413" lon="3.69979">
        <ele>477</ele>
        <time>2011-12-30T16:19:24Z</time>
      </trkpt>
      <trkpt lat="46.07479" lon="3.69943">
        <ele>477</ele>
        <time>2011-12-30T16:19:24Z</time>
      </trkpt>
      <trkpt lat="46.07525" lon="3.6993">
        <ele>479</ele>
        <time>2011-12-30T16:19:24Z</time>
      </trkpt>
      <trkpt lat="46.0758" lon="3.69926">
        <ele>479</ele>
        <time>2011-12-30T16:19:24Z</time>
      </trkpt>
      <trkpt lat="46.07615" lon="3.69985">
        <ele>487</ele>
        <time>2011-12-30T16:19:24Z</time>
      </trkpt>
      <trkpt lat="46.07653" lon="3.70053">
        <ele>502</ele>
        <time>2011-12-30T16:19:24Z</time>
      </trkpt>
      <trkpt lat="46.07688" lon="3.70131">
        <ele>508</ele>
        <time>2011-12-30T16:19:24Z</time>
      </trkpt>
      <trkpt lat="46.07708" lon="3.70169">
        <ele>509</ele>
        <time>2011-12-30T16:19:24Z</time>
      </trkpt>
      <trkpt lat="46.07695" lon="3.70241">
        <ele>511</ele>
        <time>2011-12-30T16:19:24Z</time>
      </trkpt>
      <trkpt lat="46.07687" lon="3.70327">
        <ele>518</ele>
        <time>2011-12-30T16:19:24Z</time>
      </trkpt>
      <trkpt lat="46.07699" lon="3.70375">
        <ele>521</ele>
        <time>2011-12-30T16:19:24Z</time>
      </trkpt>
      <trkpt lat="46.07739" lon="3.70407">
        <ele>522</ele>
        <time>2011-12-30T16:19:24Z</time>
      </trkpt>
      <trkpt lat="46.07767" lon="3.7041">
        <ele>527</ele>
        <time>2011-12-30T16:19:24Z</time>
      </trkpt>
      <trkpt lat="46.07837" lon="3.7039">
        <ele>541</ele>
        <time>2011-12-30T16:19:24Z</time>
      </trkpt>
      <trkpt lat="46.07903" lon="3.70403">
        <ele>545</ele>
        <time>2011-12-30T16:19:24Z</time>
      </trkpt>
      <trkpt lat="46.07969" lon="3.70445">
        <ele>556</ele>
        <time>2011-12-30T16:19:24Z</time>
      </trkpt>
      <trkpt lat="46.07997" lon="3.70456">
        <ele>563</ele>
        <time>2011-12-30T16:19:24Z</time>
      </trkpt>
      <trkpt lat="46.08079" lon="3.70456">
        <ele>576</ele>
        <time>2011-12-30T16:19:24Z</time>
      </trkpt>
      <trkpt lat="46.08132" lon="3.70449">
        <ele>581</ele>
        <time>2011-12-30T16:19:24Z</time>
      </trkpt>
      <trkpt lat="46.08175" lon="3.70471">
        <ele>586</ele>
        <time>2011-12-30T16:19:24Z</time>
      </trkpt>
      <trkpt lat="46.08199" lon="3.70506">
        <ele>588</ele>
        <time>2011-12-30T16:19:24Z</time>
      </trkpt>
      <trkpt lat="46.08197" lon="3.70577">
        <ele>586</ele>
        <time>2011-12-30T16:19:24Z</time>
      </trkpt>
      <trkpt lat="46.082" lon="3.70658">
        <ele>584</ele>
        <time>2011-12-30T16:19:24Z</time>
      </trkpt>
      <trkpt lat="46.08222" lon="3.70709">
        <ele>588</ele>
        <time>2011-12-30T16:19:24Z</time>
      </trkpt>
      <trkpt lat="46.08279" lon="3.70788">
        <ele>592</ele>
        <time>2011-12-30T16:19:24Z</time>
      </trkpt>
      <trkpt lat="46.08314" lon="3.70842">
        <ele>593</ele>
        <time>2011-12-30T16:19:24Z</time>
      </trkpt>
      <trkpt lat="46.08359" lon="3.70927">
        <ele>603</ele>
        <time>2011-12-30T16:19:24Z</time>
      </trkpt>
      <trkpt lat="46.08397" lon="3.70986">
        <ele>611</ele>
        <time>2011-12-30T16:19:24Z</time>
      </trkpt>
      <trkpt lat="46.08444" lon="3.71041">
        <ele>608</ele>
        <time>2011-12-30T16:19:24Z</time>
      </trkpt>
      <trkpt lat="46.08497" lon="3.71044">
        <ele>610</ele>
        <time>2011-12-30T16:19:24Z</time>
      </trkpt>
      <trkpt lat="46.08523" lon="3.7106">
        <ele>612</ele>
        <time>2011-12-30T16:19:24Z</time>
      </trkpt>
      <trkpt lat="46.08537" lon="3.71121">
        <ele>616</ele>
        <time>2011-12-30T16:19:24Z</time>
      </trkpt>
      <trkpt lat="46.08563" lon="3.7115">
        <ele>619</ele>
        <time>2011-12-30T16:19:24Z</time>
      </trkpt>
      <trkpt lat="46.08613" lon="3.71158">
        <ele>628</ele>
        <time>2011-12-30T16:19:24Z</time>
      </trkpt>
      <trkpt lat="46.08649" lon="3.71133">
        <ele>636</ele>
        <time>2011-12-30T16:19:24Z</time>
      </trkpt>
      <trkpt lat="46.08689" lon="3.71107">
        <ele>640</ele>
        <time>2011-12-30T16:19:24Z</time>
      </trkpt>
      <trkpt lat="46.0873" lon="3.71079">
        <ele>640</ele>
        <time>2011-12-30T16:19:24Z</time>
      </trkpt>
      <trkpt lat="46.08786" lon="3.71051">
        <ele>647</ele>
        <time>2011-12-30T16:19:24Z</time>
      </trkpt>
      <trkpt lat="46.08811" lon="3.71037">
        <ele>651</ele>
        <time>2011-12-30T16:19:24Z</time>
      </trkpt>
      <trkpt lat="46.08906" lon="3.71026">
        <ele>664</ele>
        <time>2011-12-30T16:19:24Z</time>
      </trkpt>
      <trkpt lat="46.08935" lon="3.71043">
        <ele>667</ele>
        <time>2011-12-30T16:19:24Z</time>
      </trkpt>
      <trkpt lat="46.08978" lon="3.71069">
        <ele>668</ele>
        <time>2011-12-30T16:19:24Z</time>
      </trkpt>
      <trkpt lat="46.09015" lon="3.71074">
        <ele>671</ele>
        <time>2011-12-30T16:19:24Z</time>
      </trkpt>
      <trkpt lat="46.09032" lon="3.71089">
        <ele>672</ele>
        <time>2011-12-30T16:19:24Z</time>
      </trkpt>
      <trkpt lat="46.09052" lon="3.71164">
        <ele>678</ele>
        <time>2011-12-30T16:19:24Z</time>
      </trkpt>
      <trkpt lat="46.09075" lon="3.71236">
        <ele>683</ele>
        <time>2011-12-30T16:19:24Z</time>
      </trkpt>
      <trkpt lat="46.09101" lon="3.71279">
        <ele>682</ele>
        <time>2011-12-30T16:19:24Z</time>
      </trkpt>
      <trkpt lat="46.0915" lon="3.71298">
        <ele>683</ele>
        <time>2011-12-30T16:19:24Z</time>
      </trkpt>
      <trkpt lat="46.09191" lon="3.71325">
        <ele>680</ele>
        <time>2011-12-30T16:19:24Z</time>
      </trkpt>
      <trkpt lat="46.09265" lon="3.71389">
        <ele>675</ele>
        <time>2011-12-30T16:19:24Z</time>
      </trkpt>
      <trkpt lat="46.09302" lon="3.7142">
        <ele>675</ele>
        <time>2011-12-30T16:19:24Z</time>
      </trkpt>
      <trkpt lat="46.09333" lon="3.71457">
        <ele>677</ele>
        <time>2011-12-30T16:19:24Z</time>
      </trkpt>
      <trkpt lat="46.09342" lon="3.71509">
        <ele>676</ele>
        <time>2011-12-30T16:19:24Z</time>
      </trkpt>
      <trkpt lat="46.09345" lon="3.7154">
        <ele>675</ele>
        <time>2011-12-30T16:19:24Z</time>
      </trkpt>
      <trkpt lat="46.0935" lon="3.71566">
        <ele>675</ele>
        <time>2011-12-30T16:19:24Z</time>
      </trkpt>
      <trkpt lat="46.09375" lon="3.71614">
        <ele>672</ele>
        <time>2011-12-30T16:19:24Z</time>
      </trkpt>
      <trkpt lat="46.09393" lon="3.71627">
        <ele>671</ele>
        <time>2011-12-30T16:19:24Z</time>
      </trkpt>
      <trkpt lat="46.09414" lon="3.71613">
        <ele>673</ele>
        <time>2011-12-30T16:19:24Z</time>
      </trkpt>
      <trkpt lat="46.09433" lon="3.71602">
        <ele>675</ele>
        <time>2011-12-30T16:19:24Z</time>
      </trkpt>
      <trkpt lat="46.09445" lon="3.71614">
        <ele>673</ele>
        <time>2011-12-30T16:19:24Z</time>
      </trkpt>
      <trkpt lat="46.09464" lon="3.71656">
        <ele>669</ele>
        <time>2011-12-30T16:19:24Z</time>
      </trkpt>
      <trkpt lat="46.09479" lon="3.71678">
        <ele>668</ele>
        <time>2011-12-30T16:19:24Z</time>
      </trkpt>
      <trkpt lat="46.09533" lon="3.71593">
        <ele>669</ele>
        <time>2011-12-30T16:19:24Z</time>
      </trkpt>
      <trkpt lat="46.09584" lon="3.71503">
        <ele>670</ele>
        <time>2011-12-30T16:19:24Z</time>
      </trkpt>
      <trkpt lat="46.09601" lon="3.71408">
        <ele>675</ele>
        <time>2011-12-30T16:19:24Z</time>
      </trkpt>
      <trkpt lat="46.09615" lon="3.71316">
        <ele>673</ele>
        <time>2011-12-30T16:19:24Z</time>
      </trkpt>
      <trkpt lat="46.09628" lon="3.71279">
        <ele>669</ele>
        <time>2011-12-30T16:19:24Z</time>
      </trkpt>
      <trkpt lat="46.09625" lon="3.71203">
        <ele>663</ele>
        <time>2011-12-30T16:19:24Z</time>
      </trkpt>
      <trkpt lat="46.09607" lon="3.71146">
        <ele>658</ele>
        <time>2011-12-30T16:19:24Z</time>
      </trkpt>
      <trkpt lat="46.0961" lon="3.71128">
        <ele>655</ele>
        <time>2011-12-30T16:19:24Z</time>
      </trkpt>
      <trkpt lat="46.09679" lon="3.7119">
        <ele>653</ele>
        <time>2011-12-30T16:19:24Z</time>
      </trkpt>
      <trkpt lat="46.09736" lon="3.71254">
        <ele>644</ele>
        <time>2011-12-30T16:19:24Z</time>
      </trkpt>
      <trkpt lat="46.09765" lon="3.71312">
        <ele>641</ele>
        <time>2011-12-30T16:19:24Z</time>
      </trkpt>
      <trkpt lat="46.09796" lon="3.7133">
        <ele>639</ele>
        <time>2011-12-30T16:19:24Z</time>
      </trkpt>
      <trkpt lat="46.09835" lon="3.71339">
        <ele>639</ele>
        <time>2011-12-30T16:19:24Z</time>
      </trkpt>
      <trkpt lat="46.09871" lon="3.71275">
        <ele>639</ele>
        <time>2011-12-30T16:19:24Z</time>
      </trkpt>
      <trkpt lat="46.09895" lon="3.71184">
        <ele>640</ele>
        <time>2011-12-30T16:19:24Z</time>
      </trkpt>
      <trkpt lat="46.0991" lon="3.71089">
        <ele>642</ele>
        <time>2011-12-30T16:19:24Z</time>
      </trkpt>
      <trkpt lat="46.09912" lon="3.71032">
        <ele>643</ele>
        <time>2011-12-30T16:19:24Z</time>
      </trkpt>
      <trkpt lat="46.09921" lon="3.70982">
        <ele>644</ele>
        <time>2011-12-30T16:19:24Z</time>
      </trkpt>
      <trkpt lat="46.099" lon="3.70914">
        <ele>645</ele>
        <time>2011-12-30T16:19:24Z</time>
      </trkpt>
      <trkpt lat="46.09896" lon="3.7086">
        <ele>644</ele>
        <time>2011-12-30T16:19:24Z</time>
      </trkpt>
      <trkpt lat="46.09975" lon="3.70693">
        <ele>651</ele>
        <time>2011-12-30T16:19:24Z</time>
      </trkpt>
      <trkpt lat="46.10019" lon="3.70553">
        <ele>649</ele>
        <time>2011-12-30T16:19:24Z</time>
      </trkpt>
      <trkpt lat="46.10071" lon="3.70398">
        <ele>649</ele>
        <time>2011-12-30T16:19:24Z</time>
      </trkpt>
      <trkpt lat="46.10123" lon="3.70166">
        <ele>632</ele>
        <time>2011-12-30T16:19:24Z</time>
      </trkpt>
      <trkpt lat="46.10138" lon="3.70069">
        <ele>628</ele>
        <time>2011-12-30T16:19:24Z</time>
      </trkpt>
      <trkpt lat="46.1015" lon="3.70037">
        <ele>626</ele>
        <time>2011-12-30T16:19:24Z</time>
      </trkpt>
      <trkpt lat="46.10192" lon="3.6998">
        <ele>622</ele>
        <time>2011-12-30T16:19:24Z</time>
      </trkpt>
      <trkpt lat="46.10221" lon="3.69929">
        <ele>618</ele>
        <time>2011-12-30T16:19:24Z</time>
      </trkpt>
      <trkpt lat="46.10229" lon="3.69861">
        <ele>612</ele>
        <time>2011-12-30T16:19:24Z</time>
      </trkpt>
      <trkpt lat="46.10224" lon="3.69824">
        <ele>608</ele>
        <time>2011-12-30T16:19:24Z</time>
      </trkpt>
      <trkpt lat="46.10212" lon="3.6979">
        <ele>604</ele>
        <time>2011-12-30T16:19:24Z</time>
      </trkpt>
      <trkpt lat="46.1018" lon="3.69783">
        <ele>603</ele>
        <time>2011-12-30T16:19:24Z</time>
      </trkpt>
      <trkpt lat="46.10198" lon="3.69741">
        <ele>599</ele>
        <time>2011-12-30T16:19:24Z</time>
      </trkpt>
      <trkpt lat="46.10239" lon="3.69703">
        <ele>594</ele>
        <time>2011-12-30T16:19:24Z</time>
      </trkpt>
      <trkpt lat="46.10257" lon="3.69655">
        <ele>591</ele>
        <time>2011-12-30T16:19:24Z</time>
      </trkpt>
      <trkpt lat="46.10268" lon="3.69612">
        <ele>589</ele>
        <time>2011-12-30T16:19:24Z</time>
      </trkpt>
      <trkpt lat="46.10278" lon="3.69533">
        <ele>587</ele>
        <time>2011-12-30T16:19:24Z</time>
      </trkpt>
      <trkpt lat="46.10253" lon="3.69435">
        <ele>580</ele>
        <time>2011-12-30T16:19:24Z</time>
      </trkpt>
      <trkpt lat="46.10221" lon="3.69371">
        <ele>571</ele>
        <time>2011-12-30T16:19:24Z</time>
      </trkpt>
      <trkpt lat="46.10202" lon="3.69334">
        <ele>565</ele>
        <time>2011-12-30T16:19:24Z</time>
      </trkpt>
      <trkpt lat="46.10165" lon="3.69304">
        <ele>562</ele>
        <time>2011-12-30T16:19:24Z</time>
      </trkpt>
      <trkpt lat="46.10126" lon="3.6928">
        <ele>561</ele>
        <time>2011-12-30T16:19:24Z</time>
      </trkpt>
      <trkpt lat="46.10057" lon="3.69272">
        <ele>560</ele>
        <time>2011-12-30T16:19:24Z</time>
      </trkpt>
      <trkpt lat="46.09987" lon="3.69277">
        <ele>555</ele>
        <time>2011-12-30T16:19:24Z</time>
      </trkpt>
      <trkpt lat="46.09961" lon="3.69255">
        <ele>557</ele>
        <time>2011-12-30T16:19:24Z</time>
      </trkpt>
      <trkpt lat="46.0993" lon="3.69199">
        <ele>564</ele>
        <time>2011-12-30T16:19:24Z</time>
      </trkpt>
      <trkpt lat="46.09903" lon="3.69182">
        <ele>564</ele>
        <time>2011-12-30T16:19:24Z</time>
      </trkpt>
      <trkpt lat="46.0985" lon="3.69139">
        <ele>565</ele>
        <time>2011-12-30T16:19:24Z</time>
      </trkpt>
      <trkpt lat="46.09821" lon="3.69061">
        <ele>564</ele>
        <time>2011-12-30T16:19:24Z</time>
      </trkpt>
      <trkpt lat="46.09824" lon="3.68993">
        <ele>563</ele>
        <time>2011-12-30T16:19:24Z</time>
      </trkpt>
      <trkpt lat="46.09884" lon="3.68889">
        <ele>565</ele>
        <time>2011-12-30T16:19:24Z</time>
      </trkpt>
      <trkpt lat="46.09903" lon="3.68849">
        <ele>561</ele>
        <time>2011-12-30T16:19:24Z</time>
      </trkpt>
      <trkpt lat="46.09969" lon="3.68819">
        <ele>561</ele>
        <time>2011-12-30T16:19:24Z</time>
      </trkpt>
      <trkpt lat="46.10015" lon="3.68805">
        <ele>560</ele>
        <time>2011-12-30T16:19:24Z</time>
      </trkpt>
      <trkpt lat="46.10026" lon="3.68775">
        <ele>560</ele>
        <time>2011-12-30T16:19:24Z</time>
      </trkpt>
      <trkpt lat="46.10017" lon="3.68682">
        <ele>556</ele>
        <time>2011-12-30T16:19:24Z</time>
      </trkpt>
      <trkpt lat="46.10002" lon="3.68625">
        <ele>551</ele>
        <time>2011-12-30T16:19:24Z</time>
      </trkpt>
      <trkpt lat="46.09958" lon="3.68611">
        <ele>547</ele>
        <time>2011-12-30T16:19:24Z</time>
      </trkpt>
      <trkpt lat="46.09925" lon="3.68599">
        <ele>545</ele>
        <time>2011-12-30T16:19:24Z</time>
      </trkpt>
      <trkpt lat="46.09979" lon="3.68575">
        <ele>546</ele>
        <time>2011-12-30T16:19:24Z</time>
      </trkpt>
      <trkpt lat="46.10059" lon="3.68548">
        <ele>552</ele>
        <time>2011-12-30T16:19:24Z</time>
      </trkpt>
      <trkpt lat="46.10088" lon="3.68522">
        <ele>554</ele>
        <time>2011-12-30T16:19:24Z</time>
      </trkpt>
      <trkpt lat="46.10109" lon="3.68449">
        <ele>555</ele>
        <time>2011-12-30T16:19:24Z</time>
      </trkpt>
      <trkpt lat="46.10179" lon="3.68347">
        <ele>566</ele>
        <time>2011-12-30T16:19:24Z</time>
      </trkpt>
      <trkpt lat="46.10215" lon="3.68319">
        <ele>569</ele>
        <time>2011-12-30T16:19:24Z</time>
      </trkpt>
      <trkpt lat="46.10331" lon="3.68286">
        <ele>577</ele>
        <time>2011-12-30T16:19:24Z</time>
      </trkpt>
      <trkpt lat="46.10429" lon="3.68267">
        <ele>581</ele>
        <time>2011-12-30T16:19:24Z</time>
      </trkpt>
      <trkpt lat="46.10499" lon="3.68258">
        <ele>586</ele>
        <time>2011-12-30T16:19:24Z</time>
      </trkpt>
      <trkpt lat="46.10617" lon="3.68251">
        <ele>592</ele>
        <time>2011-12-30T16:19:24Z</time>
      </trkpt>
      <trkpt lat="46.10725" lon="3.68218">
        <ele>593</ele>
        <time>2011-12-30T16:19:24Z</time>
      </trkpt>
      <trkpt lat="46.10804" lon="3.68236">
        <ele>593</ele>
        <time>2011-12-30T16:19:24Z</time>
      </trkpt>
      <trkpt lat="46.10832" lon="3.68274">
        <ele>591</ele>
        <time>2011-12-30T16:19:24Z</time>
      </trkpt>
      <trkpt lat="46.10853" lon="3.68291">
        <ele>586</ele>
        <time>2011-12-30T16:19:24Z</time>
      </trkpt>
      <trkpt lat="46.10944" lon="3.68288">
        <ele>561</ele>
        <time>2011-12-30T16:19:24Z</time>
      </trkpt>
      <trkpt lat="46.11114" lon="3.68289">
        <ele>533</ele>
        <time>2011-12-30T16:19:24Z</time>
      </trkpt>
      <trkpt lat="46.11192" lon="3.68314">
        <ele>528</ele>
        <time>2011-12-30T16:19:24Z</time>
      </trkpt>
      <trkpt lat="46.11226" lon="3.68343">
        <ele>527</ele>
        <time>2011-12-30T16:19:24Z</time>
      </trkpt>
      <trkpt lat="46.11249" lon="3.6838">
        <ele>525</ele>
        <time>2011-12-30T16:19:24Z</time>
      </trkpt>
      <trkpt lat="46.11293" lon="3.68348">
        <ele>517</ele>
        <time>2011-12-30T16:19:24Z</time>
      </trkpt>
      <trkpt lat="46.11344" lon="3.68298">
        <ele>515</ele>
        <time>2011-12-30T16:19:24Z</time>
      </trkpt>
      <trkpt lat="46.11299" lon="3.68138">
        <ele>509</ele>
        <time>2011-12-30T16:19:24Z</time>
      </trkpt>
      <trkpt lat="46.11272" lon="3.68144">
        <ele>510</ele>
        <time>2011-12-30T16:19:24Z</time>
      </trkpt>
      <trkpt lat="46.11224" lon="3.6812">
        <ele>506</ele>
        <time>2011-12-30T16:19:24Z</time>
      </trkpt>
      <trkpt lat="46.11212" lon="3.68083">
        <ele>500</ele>
        <time>2011-12-30T16:19:24Z</time>
      </trkpt>
      <trkpt lat="46.11225" lon="3.68002">
        <ele>492</ele>
        <time>2011-12-30T16:19:24Z</time>
      </trkpt>
      <trkpt lat="46.11243" lon="3.67906">
        <ele>483</ele>
        <time>2011-12-30T16:19:24Z</time>
      </trkpt>
      <trkpt lat="46.11249" lon="3.67847">
        <ele>478</ele>
        <time>2011-12-30T16:19:24Z</time>
      </trkpt>
      <trkpt lat="46.11242" lon="3.67765">
        <ele>468</ele>
        <time>2011-12-30T16:19:24Z</time>
      </trkpt>
      <trkpt lat="46.11233" lon="3.67721">
        <ele>460</ele>
        <time>2011-12-30T16:19:24Z</time>
      </trkpt>
      <trkpt lat="46.11292" lon="3.67624">
        <ele>454</ele>
        <time>2011-12-30T16:19:24Z</time>
      </trkpt>
      <trkpt lat="46.11334" lon="3.67557">
        <ele>452</ele>
        <time>2011-12-30T16:19:24Z</time>
      </trkpt>
      <trkpt lat="46.11367" lon="3.67511">
        <ele>448</ele>
        <time>2011-12-30T16:19:24Z</time>
      </trkpt>
      <trkpt lat="46.11442" lon="3.67487">
        <ele>443</ele>
        <time>2011-12-30T16:19:24Z</time>
      </trkpt>
      <trkpt lat="46.1148" lon="3.67459">
        <ele>439</ele>
        <time>2011-12-30T16:19:24Z</time>
      </trkpt>
      <trkpt lat="46.11531" lon="3.67395">
        <ele>442</ele>
        <time>2011-12-30T16:19:24Z</time>
      </trkpt>
      <trkpt lat="46.11575" lon="3.67278">
        <ele>441</ele>
        <time>2011-12-30T16:19:24Z</time>
      </trkpt>
      <trkpt lat="46.11622" lon="3.6716">
        <ele>462</ele>
        <time>2011-12-30T16:19:24Z</time>
      </trkpt>
      <trkpt lat="46.11647" lon="3.67091">
        <ele>460</ele>
        <time>2011-12-30T16:19:24Z</time>
      </trkpt>
      <trkpt lat="46.11677" lon="3.6702">
        <ele>444</ele>
        <time>2011-12-30T16:19:24Z</time>
      </trkpt>
      <trkpt lat="46.11678" lon="3.66975">
        <ele>432</ele>
        <time>2011-12-30T16:19:24Z</time>
      </trkpt>
      <trkpt lat="46.11669" lon="3.66883">
        <ele>413</ele>
        <time>2011-12-30T16:19:24Z</time>
      </trkpt>
      <trkpt lat="46.11661" lon="3.66827">
        <ele>404</ele>
        <time>2011-12-30T16:19:24Z</time>
      </trkpt>
      <trkpt lat="46.11662" lon="3.66782">
        <ele>394</ele>
        <time>2011-12-30T16:19:24Z</time>
      </trkpt>
      <trkpt lat="46.11665" lon="3.6674">
        <ele>385</ele>
        <time>2011-12-30T16:19:24Z</time>
      </trkpt>
      <trkpt lat="46.11668" lon="3.6674">
        <ele>384</ele>
        <time>2011-12-30T16:19:24Z</time>
      </trkpt>
      <trkpt lat="46.11692" lon="3.66742">
        <ele>381</ele>
        <time>2011-12-30T16:19:24Z</time>
      </trkpt>
      <trkpt lat="46.1171" lon="3.66723">
        <ele>375</ele>
        <time>2011-12-30T16:19:24Z</time>
      </trkpt>
      <trkpt lat="46.11714" lon="3.66714">
        <ele>373</ele>
        <time>2011-12-30T16:19:24Z</time>
      </trkpt>
      <trkpt lat="46.11712" lon="3.66688">
        <ele>369</ele>
        <time>2011-12-30T16:19:24Z</time>
      </trkpt>
      <trkpt lat="46.11679" lon="3.66669">
        <ele>371</ele>
        <time>2011-12-30T16:19:24Z</time>
      </trkpt>
      <trkpt lat="46.11662" lon="3.66656">
        <ele>371</ele>
        <time>2011-12-30T16:19:24Z</time>
      </trkpt>
      <trkpt lat="46.11665" lon="3.66614">
        <ele>365</ele>
        <time>2011-12-30T16:19:24Z</time>
      </trkpt>
      <trkpt lat="46.1167" lon="3.66603">
        <ele>363</ele>
        <time>2011-12-30T16:19:24Z</time>
      </trkpt>
    </trkseg>
  </trk>
</gpx>